MORELOS 2 R/B(PAM-D), 16293

Orbit data source: Space-Track

MORELOS 2 R/B(PAM-D), 16293 is space debris in HEO originally from a launch on Wed, 27 Nov 1985 UTC launched from the Air Force Eastern Test Range (AFETR). Debris objects in space refer to the collection of defunct objects orbiting the Earth. Examples of debris include non-operational satellites, rocket bodies, and fragments generated from explosions, collisions, or faulty payload assembly.

Loading next visibility...
Identifier
16293, 1985-109F
Orbit
HEO
Last TLE update
14 hours ago
Origin
Manufacturer
Thiokol/TE
Mission
Spacecraft
Bus & Motor
STAR 48, Unknown motor
Mass
132 kg wet, 132 kg dry
Launch date (UTC)
1985-11-27 (39 years ago)
Launch vehicle
Unknown
Launch site
Air Force Eastern Test Range (AFETR)
Object type
Payload
Rocket body
Debris
Shape & HBR
Sphere + Cone, 2.3 m
Radar Cross Section
2.822 m², Large (>1 m²)

Expand to show TLE details & history

TLE from 14 hours ago
0 MORELOS 2 R/B(PAM-D)
1 16293U 85109F   25128.66995546  .00000498  00000-0  10126-2 0  9995
2 16293  26.1815 336.3480 7154089 157.6159 263.9413  2.37210384271166
Epoch: 2025-05-08T16:04Z
Definitive object data (Epoch: 2025-05-08T16:04:44.151Z)
Latitude
-0.00003°
Longitude
-131.56229°
Altitude
27,866.906 km
Speed
2.549 km/s
True Right ascension
22h 25m 26s
True Declination
0° 00' 00"
Sunlit
Object was in daylight at TLE epoch
Visualization TLE readout
Latitude
-25.25992°
Longitude
154.753°
Altitude
14,007.89 km
Speed
4.725 km/s
Apparent Right ascension
18h 26m 17s
Apparent Declination
-38° 53' 37"
Sunlit
Object is in daylight
Visualization observer readout
Local Sidereal Time
14:07:22
Azimuth
134.627° SE
Elevation
-8.515°
Doppler factor
1
Orbital elements
Apogee altitude
34,367.805 km
Perigee altitude
381.728 km
Semi-major axis
23,752.903 km
Eccentricity
0.7154089
Inclination
26.1815°
RAAN
336.348°
Arg. of periapsis
157.6159°
True anomaly
202.35134°
Mean anomaly
263.9413°
Eccentric anomaly
231.75085°
Mean motion
0.59288 °/min
BSTAR
0.0010126
Orbital period
607.2 mins
Loading maneuver chart data...
Loading SW <> Apogee altitude chart data...
Loading historical data...
Loading historical data...
Loading historical data...
Loading historical data...
Loading historical data...
Loading historical data...
Loading historical data...

MORELOS 2 R/B(PAM-D) Visibility forecast

Observer location: undefined°, undefined°

Span
Click to sort rows by Start time (UTC) header in descending order
Start Az.
Max El. time (UTC)
Max El. Az.
Max El.
End time (UTC)
End Az.
328 mins2025-05-09 09:02:36.590Z126.601° SE2025-05-09 13:30:36.590Z133.094° SE31.602°2025-05-09 14:30:36.590Z92.565° ESE
|